Weather Roundup
Issued by NWS

Home | Current Version | Previous Version | Graphics & Text | Print | Product List | Glossary Off
Versions: 1 2 3 4 5 6 7 8 9 10 11 12 13 14 15 16 17 18 19 20 21 22 23 24 25 26 27 28 29 30 31 32 33 34 35 36 37 38 39 40 41 42 43 44 45 46 47 48 49 50

000
NZUS93 KARX 241459
HRRWXR

CURRENT HOURLY OBSERVATIONS ACROSS
MUCH OF THE UPPER MISSISSIPPI VALLEY
NATIONAL WEATHER SERVICE LA CROSSE WI
1000 AM CDT SUN JUL 24 2016


...SOUTHEAST MINNESOTA...


CITY           SKY/WX    TMP DP  RH WIND       PRES   REMARKS
ROCHESTER      MOSUNNY   80  73  79 NW12      29.88R
ROCHESTER/MAYO FAIR      78  73  83 NW17G24   29.87R
WINONA         PTSUNNY   81  72  74 NW10      29.82R
AUSTIN         SUNNY     79  70  73 NW9G21    29.89R
ALBERT LEA     SUNNY     77  66  69 NW10      29.91R
DODGE CENTER   SUNNY     79  68  69 NW14G20   29.89R
PRESTON        SUNNY     80  70  72 NW13      29.87R
OWATONNA       SUNNY     79  66  65 W8        29.89S
FARIBAULT      SUNNY     79  68  69 W8        29.89S
$$

...ELSEWHERE IN MINNESOTA...


CITY           SKY/WX    TMP DP  RH WIND       PRES   REMARKS
MINNEAPOLIS    MOSUNNY   79  67  66 NW10      29.85R
INTNL FALLS    CLOUDY    68  61  78 W13G20    29.76R
DULUTH         MOSUNNY   75  66  73 W9        29.80R
RED WING       MOSUNNY   82  72  69 W9        29.83R
REDWOOD FALLS  PTSUNNY   72  61  68 NW9       29.95R
MANKATO        SUNNY     75  64  69 NW13      29.91R
WORTHINGTON    SUNNY     75  63  66 MISG      30.00R
FAIRMONT       SUNNY     77  45  31 NW10      29.93R
$$

...SOUTHWEST WISCONSIN...


CITY           SKY/WX    TMP DP  RH WIND       PRES   REMARKS
LA CROSSE      CLOUDY    82  77  84 NW7       29.80R HX  90
PRAIRIE DU CHI CLOUDY    82  75  78 W6        29.82R
BOSCOBEL       PTSUNNY   85  77  77 SW7       29.82R HX  95
LONE ROCK      PTSUNNY   84  77  79 SW7       29.81F HX  94
PLATTEVILLE    SUNNY     83  81  92 SW10      29.85S HX  96
FORT MC COY    CLOUDY    78  75  90 W6        29.82R
MAUSTON-NEW LI CLOUDY    81  77  89 SW8       29.80R
VIROQUA        CLOUDY    78  78  99 W6        29.84R
WIS DELLS      NOT AVBL
$$

...ELSEWHERE IN WISCONSIN...


CITY           SKY/WX    TMP DP  RH WIND       PRES   REMARKS
MILWAUKEE      CLOUDY    81  75  82 S14       29.84F
MADISON        PTSUNNY   84  77  79 SW8       29.83S HX  94
GREEN BAY      CLOUDY    73  73 100 S10       29.80S
EAU CLAIRE     NOT AVBL
BLACK RVR FLS  CLOUDY    79  78  97 SW5       29.80R
MEDFORD        FOG       71  71 100 SW5       29.82R VSB 3/4
WAUSAU         CLOUDY    73  72  96 SW8       29.80R FOG
WIS RAPIDS     CLOUDY    78  74  87 W5        29.82R
MARSHFIELD     CLOUDY    75  73  93 SW7       29.81R FOG
RICE LAKE      MOSUNNY   75  70  84 W9        29.83S
$$

...NORTHEAST IOWA...


CITY           SKY/WX    TMP DP  RH WIND       PRES   REMARKS
WATERLOO       CLOUDY    80  75  84 NW7       29.86R
DUBUQUE        SUNNY     84  78  82 SW12      29.86R HX  95
DECORAH        CLOUDY    79  79 100 VRB5      29.85R
MASON CITY     SUNNY     80  69  69 N16       29.92R
CHARLES CITY   PTSUNNY   81  77  89 NW12G17   29.89R
OELWEIN        CLOUDY    81  77  89 NW10      29.87R
$$

...ELSEWHERE IN IOWA...


CITY           SKY/WX    TMP DP  RH WIND       PRES   REMARKS
DES MOINES     CLOUDY    84  77  79 N10       29.89R HX  94
IOWA CITY      MOSUNNY   86  77  74 W9        29.86S HX  97
FORT DODGE     SUNNY     79  70  73 N8        29.93S
MARSHALLTOWN   CLOUDY    81  77  88 NW15      29.88R
CEDAR RAPIDS   SUNNY     86  80  82 W10       29.85R HX 101
$$

...NORTHERN ILLINOIS...


CITY           SKY/WX    TMP DP  RH WIND       PRES   REMARKS
CHICAGO-OHARE  PTSUNNY   81  74  79 S16       29.90F
CHICAGO-MIDWAY PTSUNNY   82  73  74 S14       29.90F
MOLINE         SUNNY     89  78  70 SW9       29.85S HX 103
ROCKFORD       CLOUDY    83  76  79 S9        29.88S HX  91
PEORIA         MOSUNNY   85  79  82 S12       29.92S HX  98
$$

NOTE: "FAIR" INDICATES FEW OR NO CLOUDS BELOW 12,000 FEET WITH NO
SIGNIFICANT WEATHER AND/OR OBSTRUCTIONS TO VISIBILITY. WIND
SPEEDS ARE IN MILES-PER-HOUR.




USA.gov is the U.S. government's official web portal to all federal, state and local government web resources and services.